Volver al catálogo

ICEYE-X36

ActivoCienciaSSO
NORAD 59103·PAYLOAD·🇺🇸 United States

Lanzado Mar 4, 2024 desde Vandenberg Space Force Base

Loading…

Próximos Pases (próximas 24 horas)

TLE

ActualizadoSource: Space-Track

Época: Sep 14, 2026, 14:29 UTC

1 59103U 24043F   26257.60403791  .00003604  00000-0  24097-3 0  9991
2 59103  97.8496  37.3752 0006332  29.2623 330.8958 15.07614001138618

Sigue ICEYE-X36 en tiempo real con AllMySat

Download on the App Store